Flag for Pakistan Weather past 2 weeks in Karachi, Sindh, Pakistan

Now
88 °F

Partly sunny.


Feels Like: 90 °F
Forecast: 78 / 83 °F
Wind: 14 mph from Southwest

Location: Karachi Airport

Current Time: Sep 2, 2015 at 2:00:20 PM

Latest Report: Sep 2, 2015 at 1:25 PM


Visibility: 4 mi

Pressure: 29.68 "Hg

Humidity: 49%

Dew point: 66 °F

Location of KarachiLocation

Historic Weather in Karachi — Graph

°F

Karachi temperature yesterday

Maximum temperature yesterday: 90 °F (at 2:25 PM)
Minimum temperature yesterday: 79 °F (at 5:55 AM)
Average temperature yesterday: 84 °F

Past Weeks' High & Low Weather Summary

 TemperatureHumidityPressure
High97 °F (Aug 26, 5:00 PM)89% (Aug 22, 1:55 AM)29.74 "Hg (Aug 22, 1:55 AM)
Low79 °F (Aug 22, 1:55 AM)17% (Aug 30, 3:25 PM)29.56 "Hg (Aug 22, 3:55 PM)
Average84 °F68%29.66 "Hg
* Reported Aug 18 12:25 PM — Sep 2 12:55 PM, Karachi, Weather by CustomWeather, © 2015

Note: Actual official high and low records may vary slightly from our data, if they occured in-between our weather recording intervals... More about our weather records

Advertising

Karachi weather history for previous 24 hours

 ConditionsComfort  
Time TempWeatherWind HumidityBarometerVisibility
12:55 PM
Wed, Sep 2
88 °FPartly sunny.12 mph49%29.68 "Hg4 mi
12:25 PM88 °FPartly sunny.15 mph49%29.68 "Hg4 mi
11:55 AM88 °FPartly sunny.14 mph49%29.68 "Hg4 mi
11:25 AM86 °FPartly sunny.14 mph52%29.68 "Hg4 mi
10:55 AM86 °FPartly sunny.10 mph46%29.71 "Hg4 mi
10:25 AM86 °FPartly sunny.13 mph52%29.68 "Hg4 mi
9:55 AM84 °FPartly sunny.9 mph58%29.68 "Hg4 mi
9:25 AM84 °FPartly sunny.12 mph58%29.68 "Hg4 mi
8:55 AM84 °FScattered clouds.12 mph58%29.68 "Hg4 mi
8:25 AM82 °FScattered clouds.9 mph66%29.68 "Hg4 mi
7:55 AM81 °FScattered clouds.8 mph70%29.68 "Hg4 mi
7:25 AM81 °FScattered clouds.8 mph70%29.65 "Hg4 mi
6:55 AM79 °FScattered clouds.12 mph74%29.65 "Hg4 mi
6:25 AM79 °FPartly sunny.7 mph74%29.65 "Hg4 mi
5:55 AM79 °FPassing clouds.8 mph74%29.65 "Hg4 mi
4:55 AM79 °FPassing clouds.7 mph74%29.65 "Hg4 mi
4:25 AM79 °FPassing clouds.8 mph74%29.65 "Hg4 mi
3:55 AM81 °FPassing clouds.7 mph70%29.65 "Hg4 mi
2:25 AM81 °FPassing clouds.9 mph70%29.65 "Hg4 mi
1:55 AM81 °FPassing clouds.8 mph66%29.65 "Hg4 mi
1:25 AM81 °FPassing clouds.9 mph66%29.65 "Hg4 mi
12:55 AM82 °FPassing clouds.9 mph66%29.68 "Hg4 mi
12:25 AM82 °FPassing clouds.12 mph66%29.68 "Hg4 mi
11:55 PM
Tue, Sep 1
82 °FPassing clouds.9 mph66%29.68 "Hg4 mi
11:25 PM82 °FPassing clouds.12 mph66%29.68 "Hg4 mi
10:55 PM82 °FPassing clouds.9 mph66%29.68 "Hg4 mi
10:25 PM82 °FPassing clouds.9 mph66%29.68 "Hg4 mi
9:55 PM82 °FPassing clouds.9 mph66%29.68 "Hg4 mi
9:25 PM82 °FPassing clouds.12 mph70%29.68 "Hg4 mi
8:55 PM82 °FPassing clouds.12 mph66%29.65 "Hg4 mi
8:25 PM82 °FPassing clouds.12 mph66%29.65 "Hg4 mi
7:55 PM82 °FPassing clouds.12 mph66%29.65 "Hg4 mi
7:25 PM82 °FPassing clouds.9 mph66%29.65 "Hg4 mi
6:55 PM82 °FPassing clouds.9 mph66%29.62 "Hg4 mi
6:25 PM84 °FScattered clouds.12 mph62%29.62 "Hg4 mi
5:55 PM86 °FScattered clouds.12 mph59%29.62 "Hg4 mi
5:25 PM86 °FScattered clouds.12 mph59%29.62 "Hg4 mi
4:55 PM86 °FScattered clouds.12 mph55%29.62 "Hg4 mi
4:25 PM88 °FScattered clouds.12 mph52%29.62 "Hg4 mi
3:55 PM88 °FScattered clouds.12 mph52%29.62 "Hg4 mi
3:25 PM88 °FScattered clouds.12 mph52%29.65 "Hg4 mi
2:55 PM90 °FPassing clouds.10 mph49%29.65 "Hg4 mi
2:25 PM90 °FPassing clouds.9 mph49%29.65 "Hg4 mi
Weather by CustomWeather, © 2015

See weather overviewHow to use our weather pages